Regional Weather Roundup
Issued by NWS Boston, MA

Current Version | Previous Version | Text Only | Print | Product List | Glossary Off
Versions: 1 2 3 4 5 6 7 8 9 10 11 12 13 14 15 16 17 18 19 20 21 22 23 24 25 26 27 28 29 30 31 32 33 34 35 36 37 38 39 40 41 42 43 44 45 46 47 48 49 50

795
ASUS41 KBOX 230810
RWRBOX

REGIONAL WEATHER ROUNDUP
NATIONAL WEATHER SERVICE TAUNTON MA
300 AM EST THU FEB 23 2017

NOTE:  "FAIR" INDICATES FEW OR NO CLOUDS BELOW 12,000 FEET WITH NO
SIGNIFICANT WEATHER AND/OR OBSTRUCTIONS TO VISIBILITY.

MAZALL-230900-
EASTERN MASSACHUSETTS

CITY           SKY/WX    TMP DP  RH WIND       PRES   REMARKS
BOSTON         MOCLDY    43  38  82 SW9       29.87F
BEVERLY        CLOUDY    36  35  96 N7        29.87R FOG     WCI  30
LAWRENCE       CLOUDY    38  34  85 CALM      29.88S
BEDFORD        MOCLDY    34  30  85 CALM      29.86S
BLUE HILL        N/A     41  36  82 SW10      29.85S
NORWOOD        CLOUDY    35  34  96 S3        29.87F
MARSHFIELD     PTCLDY    39  37  93 VRB5      29.88S
PLYMOUTH       CLOUDY    37  36  96 CALM      29.89S
TAUNTON        CLOUDY    36  35  96 CALM      29.88R
NEW BEDFORD    FOG       38  36  92 CALM      29.88S VSB 1/4
$$

MAZALL-230900-
CAPE COD AND THE ISLANDS

CITY           SKY/WX    TMP DP  RH WIND       PRES   REMARKS
FALMOUTH         N/A    N/A N/A N/A MISG        N/A
HYANNIS        FOG       43  43 100 SW13      29.87S VSB 1/2
CHATHAM        FOG       42  42 100 SW6       29.90S VSB 1/2
PROVINCETOWN   MOCLDY    39  39 100 S7        29.89S
NANTUCKET      FOG       43  41  93 SW6       29.90F VSB 3/4
MARTHAS VNYRD  FOG       45  44  97 SW7       29.89F VSB 1/2
$$

MAZALL-230900-
CENTRAL AND WESTERN MASSACHUSETTS

CITY           SKY/WX    TMP DP  RH WIND       PRES   REMARKS
WORCESTER      CLOUDY    43  35  73 SW10      29.85S
FITCHBURG      MOCLDY    37  33  85 SE5       29.86F
ORANGE         MOCLDY    30  29  96 CALM      29.87F
SPRINGFIELD    CLOUDY    35  32  87 CALM      29.86F
WESTFIELD      CLOUDY    36  34  92 CALM      29.87F
NORTH ADAMS    MOCLDY    37  32  82 SE5       29.87F
PITTSFIELD     CLOUDY    35  31  85 CALM      29.84F
$$

RIZALL-230900-
RHODE ISLAND

CITY           SKY/WX    TMP DP  RH WIND       PRES   REMARKS
PROVIDENCE     MOCLDY    36  34  92 SW3       29.89S
NEWPORT        FOG       38  38 100 CALM      29.89S VSB 1/4
SMITHFIELD     CLOUDY    41  38  89 SW3       29.87F
WESTERLY       FOG       37  35  92 CALM      29.91S VSB 1/4
$$

CTZALL-230900-
CONNECTICUT

CITY           SKY/WX    TMP DP  RH WIND       PRES   REMARKS
BRADLEY INTL   CLOUDY    38  35  89 CALM      29.87F
HARTFORD       CLOUDY    38  36  92 CALM      29.88F
BRIDGEPORT     CLOUDY    39  36  89 E3        29.89
DANBURY        CLOUDY    36  34  92 CALM      29.88
GROTON         FOG       38  37  97 CALM      29.90R VSB 1/4
NEW HAVEN      CLOUDY    36  35  96 CALM      29.89
CHESTER        CLOUDY    39  39 100 CALM      29.88F
MERIDEN        CLOUDY    38  34  85 CALM      29.89F
WILLIMANTIC    MOCLDY    35  32  88 CALM      29.90S
OXFORD         CLOUDY    43  36  75 CALM      29.88F
$$

MEZ002-015-021-024-NHZ003-005-008-011-012-014-VTZ005-008-230900-
NORTHERN NEW ENGLAND

CITY           SKY/WX    TMP DP  RH WIND       PRES   REMARKS
PORTLAND ME    PTCLDY    28  25  88 N5        29.87S WCI  23
BANGOR ME      CLEAR     26  25  96 CALM      29.88S
CONCORD NH     CLOUDY    31  28  89 CALM      29.86F
MANCHESTER NH  MOCLDY    36  30  79 CALM      29.85F
NASHUA NH      CLOUDY    35  33  92 CALM      29.87F
PORTSMOUTH NH  MOCLDY    31  29  94 CALM      29.84F
JAFFREY NH     MOCLDY    32  30  92 S5        29.85F WCI  27
KEENE NH       MOCLDY    30  29  96 CALM      29.87F
BURLINGTON VT  CLOUDY    47  36  65 S5        29.78F
MT. WASHINGTON FOG       34  34 100 W41         N/A  VSB 0   WCI  18
$$

NYZ052-076-230900-
EASTERN NEW YORK

CITY           SKY/WX    TMP DP  RH WIND       PRES   REMARKS
ALBANY         CLOUDY    46  37  71 S6        29.84F
NEW YORK CITY  PTCLDY    44  39  82 NE3       29.88F
$$

ANZALL-230900-
MARINE OBSERVATIONS

STATION/POSITION TIME  TEMP    WIND        PRES    VSBY  WAVE
                       AIR SEA DIR/SP/G                  HT/PER
                 (UTC) (F)     (DEG/KT/KT) (MB)    (MI)  (FT/S)
BOSTON BUOY      0650   42 42  190/  6/  6 1010.9          3/10
BUZZARDS BAY     0700   41     240/  7/  8 1012.8F
NANTUCKET SOUND  0650   41 39  230/  8/ 10 1012.4          1/11
MASS BAY-STELLWA NOT AVBL
ISLE OF SHOALS   0800   38     360/  3/  4 1011.0F
S OF BLOCK IS    0755      42                N/A           3/11
$$

......................KEY.........................
  SKY/WX - SKY CONDITION/PRESENT WEATHER
  TMP    - TEMPERATURE IN FAHRENHEIT
  DWPT   - DEWPOINT IN FAHRENHEIT
  RH     - RELATIVE HUMIDITY IN PERCENT
  WIND   - DIRECTION AND SPEED IN MPH
  PRES   - MEAN SEA LEVEL PRESSURE IN INCHES OF HG
  WCI    - WIND CHILL INDEX
  VSB    - VISIBILITY IN MILES
  HX     - HEAT INDEX
  TC     - TEMPERATURE IN CELSIUS
  VRB    - VARIABLE WIND DIRECTION
  N/A    - NOT AVAILABLE




USA.gov is the U.S. government's official web portal to all federal, state and local government web resources and services.